Meteo pe oră la Bolshoe Korostkovo

Astăzi, 8 Mai, Sâmbătă

Timp Temperatura Precipitaţii Vânt Presiune Umiditate
00:00 +5°C° 0 mm 2 m/s 736 mmHg 89%
01:00 +4°C° 0 mm 3 m/s 736 mmHg 88%
02:00 +5°C° 0 mm 3 m/s 736 mmHg 86%
03:00 +5°C° 0.3 mm 4 m/s 735 mmHg 88%
04:00 +5°C° 0.3 mm 4 m/s 735 mmHg 90%
05:00 +5°C° 0.3 mm 4 m/s 734 mmHg 92%
06:00 +6°C° 0 mm 4 m/s 734 mmHg 92%
07:00 +6°C° 0 mm 4 m/s 734 mmHg 92%
08:00 +8°C° 0 mm 3 m/s 734 mmHg 91%
09:00 +8°C° 0.1 mm 3 m/s 734 mmHg 89%
10:00 +8°C° 0.1 mm 2 m/s 734 mmHg 87%
11:00 +9°C° 0.1 mm 2 m/s 734 mmHg 85%
12:00 +8°C° 0.3 mm 2 m/s 734 mmHg 86%
13:00 +8°C° 0.3 mm 3 m/s 734 mmHg 87%
14:00 +7°C° 0.3 mm 3 m/s 734 mmHg 88%
15:00 +7°C° 0.1 mm 3 m/s 734 mmHg 85%
16:00 +7°C° 0.1 mm 3 m/s 734 mmHg 82%
17:00 +7°C° 0.1 mm 3 m/s 734 mmHg 79%
18:00 +6°C° 0 mm 4 m/s 734 mmHg 78%
19:00 +5°C° 0 mm 4 m/s 734 mmHg 77%
20:00 +5°C° 0 mm 4 m/s 735 mmHg 76%
21:00 +4°C° 0 mm 4 m/s 735 mmHg 76%
22:00 +3°C° 0 mm 4 m/s 735 mmHg 76%
23:00 +2°C° 0 mm 5 m/s 735 mmHg 76%

Mâine, 9 Mai, Duminică

Timp Temperatura Precipitaţii Vânt Presiune Umiditate
00:00 +1°C° 0 mm 5 m/s 736 mmHg 79%
01:00 +1°C° 0 mm 5 m/s 736 mmHg 82%
02:00 +1°C° 0 mm 5 m/s 736 mmHg 86%
03:00 0°C° 0 mm 5 m/s 737 mmHg 85%
04:00 0°C° 0 mm 5 m/s 738 mmHg 84%
05:00 0°C° 0 mm 5 m/s 738 mmHg 83%
06:00 +1°C° 0 mm 5 m/s 739 mmHg 76%
07:00 +3°C° 0 mm 5 m/s 739 mmHg 69%
08:00 +5°C° 0 mm 5 m/s 740 mmHg 61%
09:00 +5°C° 0 mm 6 m/s 740 mmHg 54%
10:00 +8°C° 0 mm 6 m/s 741 mmHg 47%
11:00 +9°C° 0 mm 6 m/s 741 mmHg 40%
12:00 +9°C° 0 mm 6 m/s 742 mmHg 38%
13:00 +10°C° 0 mm 6 m/s 742 mmHg 36%
14:00 +10°C° 0 mm 5 m/s 743 mmHg 34%
15:00 +10°C° 0 mm 5 m/s 743 mmHg 36%
16:00 +11°C° 0 mm 4 m/s 744 mmHg 39%
17:00 +10°C° 0 mm 4 m/s 745 mmHg 41%
18:00 +8°C° 0 mm 3 m/s 745 mmHg 49%
19:00 +5°C° 0 mm 3 m/s 746 mmHg 56%
20:00 +4°C° 0 mm 2 m/s 747 mmHg 63%
21:00 +4°C° 0 mm 2 m/s 747 mmHg 64%
22:00 +3°C° 0 mm 2 m/s 747 mmHg 64%
23:00 +4°C° 0 mm 1 m/s 748 mmHg 65%

Poimâine, 10 Mai, Luni

Timp Temperatura Precipitaţii Vânt Presiune Umiditate
00:00 +4°C° 0 mm 1 m/s 748 mmHg 66%
01:00 +3°C° 0 mm 1 m/s 749 mmHg 68%
02:00 +3°C° 0 mm 1 m/s 749 mmHg 69%
03:00 +3°C° 0 mm 1 m/s 750 mmHg 70%
04:00 +3°C° 0 mm 2 m/s 750 mmHg 71%
05:00 +3°C° 0 mm 2 m/s 750 mmHg 73%
06:00 +5°C° 0 mm 2 m/s 751 mmHg 65%
07:00 +8°C° 0 mm 3 m/s 751 mmHg 58%
08:00 +10°C° 0 mm 3 m/s 751 mmHg 50%
09:00 +11°C° 0 mm 3 m/s 751 mmHg 49%
10:00 +12°C° 0 mm 3 m/s 751 mmHg 48%
11:00 +12°C° 0 mm 4 m/s 751 mmHg 47%
12:00 +13°C° 0 mm 3 m/s 751 mmHg 46%
13:00 +14°C° 0 mm 3 m/s 751 mmHg 46%
14:00 +16°C° 0 mm 3 m/s 751 mmHg 45%
15:00 +16°C° 0 mm 3 m/s 751 mmHg 48%
16:00 +16°C° 0 mm 3 m/s 751 mmHg 51%
17:00 +16°C° 0 mm 2 m/s 751 mmHg 54%
18:00 +14°C° 0 mm 2 m/s 751 mmHg 62%
19:00 +12°C° 0 mm 2 m/s 751 mmHg 71%
20:00 +9°C° 0 mm 2 m/s 752 mmHg 80%
21:00 +9°C° 0 mm 2 m/s 752 mmHg 82%
22:00 +8°C° 0 mm 2 m/s 752 mmHg 83%
23:00 +7°C° 0 mm 2 m/s 752 mmHg 85%

11 Mai, Marţi

Timp Temperatura Precipitaţii Vânt Presiune Umiditate
00:00 +7°C° 0 mm 2 m/s 752 mmHg 86%
01:00 +7°C° 0 mm 2 m/s 752 mmHg 87%
02:00 +8°C° 0 mm 1 m/s 753 mmHg 87%
03:00 +8°C° 0 mm 1 m/s 753 mmHg 86%
04:00 +8°C° 0 mm 1 m/s 753 mmHg 84%
05:00 +8°C° 0 mm 1 m/s 753 mmHg 83%
06:00 +9°C° 0 mm 2 m/s 753 mmHg 74%
07:00 +12°C° 0 mm 2 m/s 753 mmHg 65%
08:00 +14°C° 0 mm 2 m/s 753 mmHg 56%
09:00 +16°C° 0 mm 2 m/s 753 mmHg 53%
10:00 +17°C° 0 mm 3 m/s 753 mmHg 49%
11:00 +18°C° 0 mm 3 m/s 753 mmHg 46%
12:00 +19°C° 0 mm 3 m/s 753 mmHg 45%
13:00 +19°C° 0 mm 2 m/s 752 mmHg 45%
14:00 +20°C° 0 mm 2 m/s 752 mmHg 45%
15:00 +19°C° 0 mm 2 m/s 752 mmHg 48%
16:00 +19°C° 0 mm 2 m/s 752 mmHg 52%
17:00 +18°C° 0 mm 2 m/s 751 mmHg 56%
18:00 +16°C° 0 mm 2 m/s 751 mmHg 63%
19:00 +14°C° 0 mm 2 m/s 751 mmHg 71%
20:00 +12°C° 0 mm 2 m/s 751 mmHg 79%
21:00 +12°C° 0 mm 2 m/s 751 mmHg 80%
22:00 +10°C° 0 mm 2 m/s 751 mmHg 81%
23:00 +10°C° 0 mm 1 m/s 751 mmHg 82%

12 Mai, Miercuri

Timp Temperatura Precipitaţii Vânt Presiune Umiditate
00:00 +9°C° 0 mm 1 m/s 751 mmHg 82%
01:00 +9°C° 0 mm 1 m/s 751 mmHg 82%
02:00 +8°C° 0 mm 1 m/s 751 mmHg 83%
03:00 +9°C° 0 mm 1 m/s 751 mmHg 82%
04:00 +9°C° 0 mm 1 m/s 751 mmHg 81%
05:00 +9°C° 0 mm 1 m/s 751 mmHg 80%
06:00 +12°C° 0 mm 2 m/s 751 mmHg 72%
07:00 +14°C° 0 mm 2 m/s 751 mmHg 65%
08:00 +16°C° 0 mm 3 m/s 750 mmHg 57%
09:00 +17°C° 0 mm 3 m/s 750 mmHg 55%
10:00 +19°C° 0 mm 4 m/s 750 mmHg 53%
11:00 +20°C° 0 mm 4 m/s 750 mmHg 50%
12:00 +21°C° 0 mm 4 m/s 750 mmHg 50%
13:00 +22°C° 0 mm 5 m/s 749 mmHg 51%
14:00 +22°C° 0 mm 5 m/s 749 mmHg 51%
15:00 +21°C° 0.1 mm 4 m/s 749 mmHg 57%
16:00 +20°C° 0.1 mm 4 m/s 749 mmHg 63%
17:00 +19°C° 0.1 mm 3 m/s 749 mmHg 69%
18:00 +18°C° 0.1 mm 2 m/s 748 mmHg 76%
19:00 +17°C° 0.1 mm 2 m/s 748 mmHg 82%
20:00 +15°C° 0.1 mm 2 m/s 748 mmHg 89%
21:00 +15°C° 0 mm 2 m/s 748 mmHg 90%
22:00 +15°C° 0 mm 2 m/s 748 mmHg 92%
23:00 +15°C° 0 mm 2 m/s 748 mmHg 93%

13 Mai, Joi

Timp Temperatura Precipitaţii Vânt Presiune Umiditate
00:00 +14°C° 0.2 mm 2 m/s 747 mmHg 94%
01:00 +14°C° 0.2 mm 2 m/s 747 mmHg 96%
02:00 +13°C° 0.2 mm 3 m/s 747 mmHg 97%
03:00 +13°C° 0.1 mm 3 m/s 746 mmHg 97%
04:00 +13°C° 0.1 mm 3 m/s 746 mmHg 97%
05:00 +13°C° 0.1 mm 3 m/s 746 mmHg 97%
06:00 +13°C° 0.1 mm 4 m/s 745 mmHg 95%
07:00 +14°C° 0.1 mm 4 m/s 745 mmHg 93%
08:00 +14°C° 0.1 mm 5 m/s 745 mmHg 91%
09:00 +15°C° 0.3 mm 5 m/s 745 mmHg 90%
10:00 +15°C° 0.3 mm 5 m/s 745 mmHg 90%
11:00 +15°C° 0.3 mm 5 m/s 744 mmHg 89%
12:00 +15°C° 0.6 mm 5 m/s 744 mmHg 88%
13:00 +17°C° 0.6 mm 4 m/s 744 mmHg 87%
14:00 +17°C° 0.6 mm 4 m/s 744 mmHg 87%
15:00 +17°C° 0.4 mm 4 m/s 744 mmHg 86%
16:00 +18°C° 0.4 mm 4 m/s 744 mmHg 84%
17:00 +18°C° 0.4 mm 3 m/s 744 mmHg 83%
18:00 +17°C° 0.2 mm 3 m/s 744 mmHg 87%
19:00 +15°C° 0.2 mm 2 m/s 744 mmHg 91%
20:00 +14°C° 0.2 mm 2 m/s 744 mmHg 95%
21:00 +14°C° 0 mm 2 m/s 744 mmHg 96%
22:00 +13°C° 0 mm 2 m/s 744 mmHg 96%
23:00 +13°C° 0 mm 2 m/s 744 mmHg 97%
Arată mai mult

Formular de consimțământ

Meteoprog și furnizorii noștri de servicii pot stoca și accesa date personale, precum cookies, identificatori de dispozitiv sau alte tehnologii similare pe dispozitivul dumneavoastră și procesa astfel de date pentru a personaliza conținutul și reclamele, dar și pentru a oferi caracteristici de social media și pentru a analiza traficul.

  • Stocarea și/sau accesarea informațiilor pe dispozitivul dumneavoastră

    Cookies, identificatori de dispozitiv sau alte informații pot fi stocate sau accesate pe dispozitiv în scopurile indicate mai sus.

  • Reclame și conținut personalizat, evaluarea reclamelor și a conținutului, informații despre audiențe și dezvoltarea produselor

    Reclamele și conținutul pot fi personalizate pe baza unui profil. Pot fi adăugate date suplimentare pentru a personaliza mai bine reclamele și conținutul. Performanța reclamelor și conținutului poate fi măsurată. Pot fi obținute informații despre utilizatorii care au văzut reclamele și conținutul. Aceste date pot fi utilizate pentru a dezvolta sau îmbunătăți experiența utilizatorilor, sistemele și software-ul.

Dând clic pe ‘Sunt de acord’, permiteți utilizarea cookie-urilor menționate, a identificatorilor de dispozitiv, balizelor web sau altor tehnologii similare. Setările pot fi modificate din browser-ul dispozitivului dumneavoastră.

În anumite scopuri, interesele legitime pot prima asupra consimțământului. Puteți citi mai multe informații în acest sens în Politica privind Confidențialitatea Datelor și Cookie.